NJE229V LCLK-LGMK

Flight info

Callsign NJE229V
Flight time 1h 23m
Altitude 38000
Route PHA DCT GENOS DCT PEDER DCT EVENO UM601 RDS UL995 USINI DCT AKINA UL995 VARIX
Aircraft CL60/M-SBDE1E2E3FGHIJ1J4J5J7M3RWXYZ/LB1V1D1

Departure

Time 2026-04-28 14:59
Airport Larnaca International Airport (LCLK)

Arrival

Time 2026-04-28 16:22
Airport Mykonos Island National Airport (LGMK)
Time Latitude Longitude Altitude Speed Heading
2026-04-28 14:30 34.88336 33.62857 31 ft 0 kts 227°
2026-04-28 14:53 34.88336 33.62856 31 ft 0 kts 227°
2026-04-28 14:54 34.88327 33.62844 31 ft 5 kts 227°
2026-04-28 14:54 34.88302 33.62813 32 ft 3 kts 217°
2026-04-28 14:54 34.88270 33.62810 32 ft 6 kts 151°
2026-04-28 14:54 34.88229 33.62857 31 ft 10 kts 135°
2026-04-28 14:55 34.88165 33.62936 27 ft 13 kts 128°
2026-04-28 14:55 34.88195 33.63038 22 ft 17 kts 43°
2026-04-28 14:55 34.88294 33.63159 18 ft 21 kts 45°
2026-04-28 14:55 34.88377 33.63260 18 ft 15 kts 45°
2026-04-28 14:56 34.88443 33.63352 19 ft 9 kts 68°
2026-04-28 14:56 34.88428 33.63405 19 ft 8 kts 136°
2026-04-28 14:56 34.88401 33.63438 19 ft 1 kts 134°
2026-04-28 14:56 34.88400 33.63439 19 ft 0 kts 135°
2026-04-28 14:57 34.88396 33.63444 19 ft 3 kts 135°
2026-04-28 14:57 34.88358 33.63491 18 ft 12 kts 135°
2026-04-28 14:58 34.88288 33.63511 18 ft 7 kts 219°
2026-04-28 14:58 34.88276 33.63497 18 ft 0 kts 225°
2026-04-28 14:59 34.88111 33.63296 18 ft 82 kts 225°
2026-04-28 14:59 34.87483 33.62528 150 ft 159 kts 225°
2026-04-28 14:59 34.86646 33.61498 925 ft 183 kts 227°
2026-04-28 14:59 34.85741 33.60334 1881 ft 200 kts 230°
2026-04-28 15:00 34.84744 33.59035 2673 ft 224 kts 229°
2026-04-28 15:00 34.83633 33.57596 3284 ft 238 kts 229°
2026-04-28 15:00 34.82442 33.56059 3977 ft 259 kts 229°
2026-04-28 15:00 34.81170 33.54422 4694 ft 268 kts 229°
2026-04-28 15:01 34.79881 33.52768 5416 ft 271 kts 229°
2026-04-28 15:01 34.78559 33.51072 6156 ft 274 kts 229°
2026-04-28 15:01 34.77243 33.49386 6885 ft 276 kts 229°
2026-04-28 15:01 34.75914 33.47684 7612 ft 279 kts 229°
2026-04-28 15:02 34.74562 33.45954 8349 ft 283 kts 229°
2026-04-28 15:02 34.73203 33.44217 9086 ft 287 kts 229°
2026-04-28 15:02 34.71814 33.42442 9821 ft 292 kts 229°
2026-04-28 15:02 34.70351 33.40571 10564 ft 317 kts 229°
2026-04-28 15:03 34.68901 33.38451 11297 ft 335 kts 240°
2026-04-28 15:03 34.68075 33.35757 12047 ft 342 kts 263°
2026-04-28 15:03 34.68063 33.32822 12766 ft 346 kts 274°
2026-04-28 15:03 34.68195 33.29873 13497 ft 348 kts 274°
2026-04-28 15:04 34.68317 33.26936 14231 ft 351 kts 273°
2026-04-28 15:04 34.68440 33.23918 14998 ft 356 kts 273°
2026-04-28 15:04 34.68563 33.20917 15720 ft 359 kts 273°
2026-04-28 15:04 34.68687 33.17851 16453 ft 362 kts 274°
2026-04-28 15:05 34.68810 33.14773 17192 ft 365 kts 274°
2026-04-28 15:05 34.68932 33.11691 17924 ft 369 kts 274°
2026-04-28 15:05 34.69057 33.08538 18670 ft 373 kts 274°
2026-04-28 15:05 34.69181 33.05360 19399 ft 377 kts 274°
2026-04-28 15:06 34.69305 33.02164 20137 ft 381 kts 274°
2026-04-28 15:06 34.69431 32.98917 20878 ft 385 kts 274°
2026-04-28 15:06 34.69555 32.95663 21607 ft 388 kts 273°
2026-04-28 15:06 34.69680 32.92370 22347 ft 391 kts 273°
2026-04-28 15:07 34.69808 32.88976 23104 ft 395 kts 273°
2026-04-28 15:07 34.69934 32.85603 23849 ft 399 kts 273°
2026-04-28 15:07 34.70059 32.82227 24583 ft 403 kts 273°
2026-04-28 15:07 34.70187 32.78753 25324 ft 406 kts 273°
2026-04-28 15:08 34.70314 32.75291 26067 ft 409 kts 273°
2026-04-28 15:08 34.70438 32.71847 26799 ft 410 kts 273°
2026-04-28 15:08 34.70564 32.68336 27540 ft 410 kts 273°
2026-04-28 15:08 34.70688 32.64860 28270 ft 410 kts 273°
2026-04-28 15:09 34.70811 32.61360 28882 ft 412 kts 273°
2026-04-28 15:09 34.70934 32.57854 29380 ft 416 kts 273°
2026-04-28 15:09 34.71059 32.54282 29839 ft 421 kts 273°
2026-04-28 15:09 34.71155 32.50706 30272 ft 425 kts 270°
2026-04-28 15:10 34.71014 32.47065 30720 ft 428 kts 267°
2026-04-28 15:10 34.70820 32.43438 31175 ft 430 kts 267°
2026-04-28 15:10 34.70626 32.39777 31587 ft 432 kts 267°
2026-04-28 15:10 34.70430 32.36082 31971 ft 434 kts 267°
2026-04-28 15:11 34.70231 32.32359 32356 ft 436 kts 267°
2026-04-28 15:11 34.70029 32.28610 32688 ft 439 kts 267°
2026-04-28 15:11 34.69826 32.24850 32992 ft 441 kts 266°
2026-04-28 15:11 34.69620 32.21059 33309 ft 442 kts 266°
2026-04-28 15:12 34.69413 32.17263 33590 ft 444 kts 267°
2026-04-28 15:12 34.69203 32.13433 33911 ft 444 kts 267°
2026-04-28 15:12 34.68990 32.09583 34273 ft 443 kts 267°
2026-04-28 15:12 34.68780 32.05791 34568 ft 441 kts 267°
2026-04-28 15:13 34.68571 32.02052 34835 ft 438 kts 267°
2026-04-28 15:13 34.68376 31.98292 35099 ft 436 kts 269°
2026-04-28 15:13 34.68454 31.94558 35335 ft 434 kts 276°
2026-04-28 15:13 34.68916 31.90925 35543 ft 432 kts 282°
2026-04-28 15:14 34.69762 31.87351 35756 ft 432 kts 289°
2026-04-28 15:14 34.70969 31.83946 35990 ft 433 kts 296°
2026-04-28 15:14 34.72482 31.80696 36228 ft 433 kts 299°
2026-04-28 15:14 34.74035 31.77524 36441 ft 433 kts 299°
2026-04-28 15:15 34.75589 31.74339 36693 ft 432 kts 299°
2026-04-28 15:15 34.77122 31.71192 36947 ft 430 kts 299°
2026-04-28 15:15 34.78656 31.68040 37205 ft 429 kts 299°
2026-04-28 15:15 34.80191 31.64882 37382 ft 429 kts 299°
2026-04-28 15:16 34.81737 31.61698 37523 ft 429 kts 299°
2026-04-28 15:16 34.83275 31.58526 37688 ft 429 kts 299°
2026-04-28 15:16 34.84793 31.55394 37844 ft 430 kts 299°
2026-04-28 15:16 34.86328 31.52223 37950 ft 431 kts 299°
2026-04-28 15:17 34.87869 31.49035 37946 ft 435 kts 299°
2026-04-28 15:17 34.91005 31.42538 37950 ft 442 kts 299°
2026-04-28 15:18 34.94176 31.35959 37952 ft 446 kts 299°
2026-04-28 15:18 34.97367 31.29324 37941 ft 447 kts 298°
2026-04-28 15:19 35.00566 31.22662 37946 ft 446 kts 298°
2026-04-28 15:19 35.03728 31.16062 37947 ft 446 kts 298°
2026-04-28 15:20 35.06881 31.09466 37951 ft 445 kts 298°
2026-04-28 15:20 35.10020 31.02888 37957 ft 445 kts 298°
2026-04-28 15:21 35.13114 30.96394 37933 ft 445 kts 298°
2026-04-28 15:21 35.16258 30.89780 37941 ft 445 kts 298°
2026-04-28 15:22 35.19962 30.83652 37939 ft 448 kts 310°
2026-04-28 15:22 35.24265 30.78053 37922 ft 448 kts 311°
2026-04-28 15:23 35.28568 30.72435 37921 ft 448 kts 311°
2026-04-28 15:23 35.32861 30.66820 37912 ft 449 kts 311°
2026-04-28 15:24 35.37181 30.61157 37918 ft 449 kts 311°
2026-04-28 15:24 35.41476 30.55518 37915 ft 449 kts 311°
2026-04-28 15:25 35.45808 30.49817 37920 ft 448 kts 311°
2026-04-28 15:25 35.50104 30.44156 37918 ft 448 kts 311°
2026-04-28 15:26 35.54308 30.38605 37913 ft 448 kts 311°
2026-04-28 15:26 35.58580 30.32955 37918 ft 449 kts 310°
2026-04-28 15:27 35.62856 30.27289 37909 ft 449 kts 310°
2026-04-28 15:27 35.67150 30.21590 37920 ft 449 kts 311°
2026-04-28 15:28 35.71431 30.15899 37908 ft 449 kts 311°
2026-04-28 15:28 35.75697 30.10216 37918 ft 448 kts 310°
2026-04-28 15:29 35.79972 30.04505 37909 ft 449 kts 310°
2026-04-28 15:29 35.83541 29.98174 37912 ft 445 kts 296°
2026-04-28 15:30 35.85800 29.90955 37915 ft 445 kts 288°
2026-04-28 15:30 35.87786 29.83630 37904 ft 445 kts 288°
2026-04-28 15:31 35.89777 29.76275 37908 ft 445 kts 288°
2026-04-28 15:31 35.91748 29.68973 37900 ft 446 kts 288°
2026-04-28 15:32 35.93722 29.61635 37910 ft 446 kts 288°
2026-04-28 15:32 35.95707 29.54241 37912 ft 446 kts 288°
2026-04-28 15:33 35.97669 29.46955 37918 ft 446 kts 289°
2026-04-28 15:33 35.99633 29.39642 37917 ft 445 kts 288°
2026-04-28 15:34 36.01599 29.32302 37922 ft 445 kts 288°
2026-04-28 15:34 36.03557 29.24973 37925 ft 444 kts 288°
2026-04-28 15:35 36.05499 29.17684 37923 ft 444 kts 288°
2026-04-28 15:35 36.08418 29.06686 37933 ft 443 kts 288°
2026-04-28 15:36 36.10351 28.99380 37933 ft 444 kts 288°
2026-04-28 15:36 36.12277 28.92078 37923 ft 445 kts 288°
2026-04-28 15:37 36.14206 28.84743 37921 ft 446 kts 288°
2026-04-28 15:37 36.16137 28.77383 37928 ft 445 kts 288°
2026-04-28 15:38 36.18061 28.70024 37935 ft 444 kts 288°
2026-04-28 15:38 36.19975 28.62689 37933 ft 443 kts 288°
2026-04-28 15:39 36.21886 28.55341 37920 ft 443 kts 288°
2026-04-28 15:39 36.23792 28.47988 37923 ft 443 kts 288°
2026-04-28 15:40 36.25688 28.40632 37914 ft 443 kts 288°
2026-04-28 15:40 36.27564 28.33336 37908 ft 444 kts 288°
2026-04-28 15:41 36.29454 28.25958 37919 ft 444 kts 288°
2026-04-28 15:41 36.31337 28.18591 37920 ft 444 kts 288°
2026-04-28 15:42 36.33205 28.11261 37917 ft 444 kts 288°
2026-04-28 15:42 36.35439 28.04028 37922 ft 442 kts 294°
2026-04-28 15:43 36.37970 27.97022 37920 ft 442 kts 294°
2026-04-28 15:43 36.40505 27.89971 37925 ft 442 kts 294°
2026-04-28 15:44 36.43033 27.82916 37937 ft 443 kts 294°
2026-04-28 15:44 36.45558 27.75849 37923 ft 443 kts 294°
2026-04-28 15:45 36.48065 27.68816 37918 ft 443 kts 294°
2026-04-28 15:45 36.50576 27.61751 37935 ft 444 kts 294°
2026-04-28 15:46 36.53096 27.54645 37956 ft 443 kts 294°
2026-04-28 15:46 36.55603 27.47555 37951 ft 443 kts 294°
2026-04-28 15:47 36.58102 27.40471 37942 ft 443 kts 294°
2026-04-28 15:47 36.60590 27.33403 37956 ft 443 kts 294°
2026-04-28 15:48 36.63097 27.26262 37952 ft 444 kts 294°
2026-04-28 15:48 36.65570 27.19202 37958 ft 440 kts 294°
2026-04-28 15:49 36.68037 27.12141 37954 ft 434 kts 294°
2026-04-28 15:49 36.70449 27.05211 37961 ft 432 kts 294°
2026-04-28 15:50 36.72870 26.98238 37869 ft 435 kts 294°
2026-04-28 15:50 36.74111 26.94659 37396 ft 442 kts 294°
2026-04-28 15:50 36.75320 26.91166 36859 ft 439 kts 294°
2026-04-28 15:51 36.76541 26.87635 36290 ft 436 kts 294°
2026-04-28 15:51 36.77758 26.84115 35733 ft 436 kts 294°
2026-04-28 15:51 36.78975 26.80587 35137 ft 437 kts 294°
2026-04-28 15:51 36.80185 26.77078 34543 ft 437 kts 295°
2026-04-28 15:52 36.81400 26.73547 33921 ft 438 kts 295°
2026-04-28 15:52 36.82606 26.70041 33370 ft 440 kts 295°
2026-04-28 15:52 36.83816 26.66518 32766 ft 439 kts 295°
2026-04-28 15:52 36.85020 26.63004 32106 ft 436 kts 295°
2026-04-28 15:53 36.86205 26.59548 31424 ft 432 kts 295°
2026-04-28 15:53 36.87383 26.56101 30753 ft 426 kts 295°
2026-04-28 15:53 36.88541 26.52713 30074 ft 421 kts 295°
2026-04-28 15:53 36.89687 26.49357 29391 ft 416 kts 295°
2026-04-28 15:54 36.90826 26.46017 28714 ft 411 kts 295°
2026-04-28 15:54 36.91943 26.42738 28043 ft 407 kts 295°
2026-04-28 15:54 36.93052 26.39480 27368 ft 403 kts 295°
2026-04-28 15:54 36.94152 26.36244 26681 ft 400 kts 295°
2026-04-28 15:55 36.95234 26.33058 26004 ft 396 kts 294°
2026-04-28 15:55 36.96330 26.29825 25316 ft 392 kts 294°
2026-04-28 15:55 36.97398 26.26674 24635 ft 388 kts 294°
2026-04-28 15:55 36.98441 26.23597 23963 ft 384 kts 294°
2026-04-28 15:56 36.99493 26.20501 23279 ft 381 kts 294°
2026-04-28 15:56 37.00525 26.17463 22605 ft 377 kts 294°
2026-04-28 15:56 37.01547 26.14453 21924 ft 373 kts 294°
2026-04-28 15:56 37.02571 26.11433 21240 ft 370 kts 294°
2026-04-28 15:57 37.03563 26.08501 20571 ft 367 kts 294°
2026-04-28 15:57 37.04565 26.05541 19891 ft 365 kts 294°
2026-04-28 15:57 37.05554 26.02616 19221 ft 362 kts 294°
2026-04-28 15:57 37.06532 25.99718 18543 ft 360 kts 294°
2026-04-28 15:58 37.07510 25.96820 17864 ft 357 kts 294°
2026-04-28 15:58 37.08472 25.93964 17189 ft 355 kts 294°
2026-04-28 15:58 37.09433 25.91112 16508 ft 353 kts 294°
2026-04-28 15:58 37.10384 25.88283 15829 ft 351 kts 294°
2026-04-28 15:59 37.11329 25.85471 15154 ft 349 kts 294°
2026-04-28 15:59 37.12271 25.82663 14466 ft 347 kts 294°
2026-04-28 15:59 37.13202 25.79888 13793 ft 344 kts 294°
2026-04-28 15:59 37.14127 25.77128 13079 ft 338 kts 294°
2026-04-28 16:00 37.15036 25.74410 12369 ft 327 kts 295°
2026-04-28 16:00 37.15903 25.71816 11693 ft 317 kts 295°
2026-04-28 16:00 37.16754 25.69267 11015 ft 309 kts 295°
2026-04-28 16:00 37.17576 25.66803 10339 ft 302 kts 295°
2026-04-28 16:01 37.18380 25.64392 9658 ft 297 kts 295°
2026-04-28 16:01 37.19174 25.62013 9006 ft 292 kts 295°
2026-04-28 16:01 37.19957 25.59659 8335 ft 288 kts 296°
2026-04-28 16:01 37.20726 25.57348 7824 ft 277 kts 296°
2026-04-28 16:02 37.21451 25.55163 7369 ft 268 kts 296°
2026-04-28 16:02 37.22151 25.53026 6895 ft 261 kts 293°
2026-04-28 16:02 37.22360 25.50769 6418 ft 262 kts 266°
2026-04-28 16:02 37.21957 25.48547 5940 ft 260 kts 255°
2026-04-28 16:03 37.21279 25.46459 5490 ft 252 kts 251°
2026-04-28 16:03 37.20581 25.44496 5026 ft 238 kts 250°
2026-04-28 16:03 37.19916 25.42657 4705 ft 226 kts 250°
2026-04-28 16:03 37.19557 25.40807 4385 ft 206 kts 280°
2026-04-28 16:04 37.20129 25.39290 4163 ft 189 kts 322°
2026-04-28 16:04 37.21317 25.38752 3962 ft 184 kts
2026-04-28 16:04 37.22566 25.39181 3782 ft 185 kts 19°
2026-04-28 16:04 37.23791 25.39764 3587 ft 185 kts 17°
2026-04-28 16:05 37.25068 25.39889 3385 ft 185 kts 353°
2026-04-28 16:05 37.26278 25.39272 3179 ft 189 kts 327°
2026-04-28 16:05 37.26979 25.37824 2992 ft 209 kts 287°
2026-04-28 16:05 37.26744 25.35959 2868 ft 226 kts 250°
2026-04-28 16:06 37.25706 25.34456 2751 ft 236 kts 214°
2026-04-28 16:06 37.24192 25.33580 2636 ft 238 kts 202°
2026-04-28 16:06 37.22548 25.33350 2502 ft 237 kts 168°
2026-04-28 16:06 37.21134 25.34316 2381 ft 229 kts 129°
2026-04-28 16:07 37.20515 25.36079 2265 ft 216 kts 90°
2026-04-28 16:07 37.20562 25.37451 2174 ft 211 kts 74°
2026-04-28 16:07 37.22076 25.40402 1980 ft 198 kts 32°
2026-04-28 16:08 37.23326 25.41140 1984 ft 195 kts 14°
2026-04-28 16:08 37.24685 25.41384 1986 ft 195 kts
2026-04-28 16:08 37.26043 25.41516 1985 ft 194 kts
2026-04-28 16:09 37.28754 25.41405 1981 ft 196 kts 343°
2026-04-28 16:09 37.30054 25.40794 1986 ft 196 kts 341°
2026-04-28 16:09 37.31356 25.40197 1987 ft 197 kts 342°
2026-04-28 16:10 37.33864 25.39081 2003 ft 166 kts 342°
2026-04-28 16:10 37.34896 25.38624 1999 ft 147 kts 342°
2026-04-28 16:10 37.36835 25.37772 1952 ft 147 kts 343°
2026-04-28 16:11 37.38784 25.36913 943 ft 128 kts 341°
2026-04-28 16:11 37.40548 25.37136 1787 ft 167 kts 43°
2026-04-28 16:12 37.41528 25.40316 2744 ft 213 kts 69°
2026-04-28 16:12 37.41928 25.42167 2966 ft 217 kts 70°
2026-04-28 16:13 37.42712 25.45854 2990 ft 216 kts 72°
2026-04-28 16:13 37.42630 25.47766 2984 ft 228 kts 105°
2026-04-28 16:13 37.39986 25.50093 2993 ft 244 kts 163°
2026-04-28 16:14 37.36658 25.51059 2988 ft 243 kts 165°
2026-04-28 16:14 37.33540 25.51946 3010 ft 214 kts 165°
2026-04-28 16:15 37.30654 25.52761 2672 ft 208 kts 165°
2026-04-28 16:15 37.29218 25.52741 2452 ft 206 kts 200°
2026-04-28 16:15 37.28153 25.51632 2238 ft 195 kts 245°
2026-04-28 16:16 37.26931 25.48583 1983 ft 195 kts 245°
2026-04-28 16:16 37.26284 25.47116 1993 ft 182 kts 253°
2026-04-28 16:17 37.26217 25.44198 1992 ft 158 kts 296°
2026-04-28 16:17 37.26735 25.43006 1992 ft 152 kts 313°
2026-04-28 16:17 37.27494 25.42097 1989 ft 148 kts 328°
2026-04-28 16:17 37.28407 25.41496 1987 ft 145 kts 341°
2026-04-28 16:18 37.29360 25.41071 1987 ft 145 kts 343°
2026-04-28 16:18 37.30324 25.40651 1988 ft 146 kts 343°
2026-04-28 16:18 37.31300 25.40220 1991 ft 146 kts 343°
2026-04-28 16:18 37.32280 25.39789 1988 ft 146 kts 343°
2026-04-28 16:19 37.33243 25.39364 1986 ft 146 kts 343°
2026-04-28 16:19 37.34230 25.38929 1986 ft 147 kts 343°
2026-04-28 16:19 37.35195 25.38503 1986 ft 141 kts 343°
2026-04-28 16:19 37.36044 25.38125 2034 ft 123 kts 343°
2026-04-28 16:20 37.36846 25.37768 1878 ft 120 kts 343°
2026-04-28 16:20 37.37624 25.37405 1576 ft 117 kts 342°
2026-04-28 16:20 37.38367 25.37056 1329 ft 113 kts 341°
2026-04-28 16:20 37.39114 25.36718 1169 ft 113 kts 342°
2026-04-28 16:21 37.39861 25.36423 1091 ft 113 kts 344°
2026-04-28 16:21 37.40640 25.36103 890 ft 115 kts 340°
2026-04-28 16:21 37.41382 25.35763 694 ft 114 kts 341°
2026-04-28 16:21 37.42140 25.35430 548 ft 114 kts 341°
2026-04-28 16:22 37.42902 25.35095 410 ft 112 kts 341°
2026-04-28 16:22 37.43482 25.34840 412 ft 50 kts 341°
2026-04-28 16:22 37.43655 25.34762 411 ft 12 kts 334°
2026-04-28 16:22 37.43637 25.34682 410 ft 9 kts 217°
2026-04-28 16:23 37.43589 25.34654 411 ft 8 kts 253°
2026-04-28 16:23 37.43580 25.34622 411 ft 2 kts 250°
2026-04-28 16:23 37.43578 25.34615 411 ft 0 kts 250°